Location: McFarlands Corners
(41.4117°N, 81.3382°W)
Time: 01:26:02
(UTC+00:00)

Transit 4A - Pass Details

Date: 21 November 2024
Orbit: 862 x 980 km, 66.8° (Epoch: 08 December)

Event Time Altitude Azimuth Distance (km) Brightness Sun altitude
Rises 00:36:29 0° 336° (NNW) 3,667 11.3 -28.8°
Reaches altitude 10° 00:39:27 10° 348° (NNW) 2,727 10.4 -29.4°
Enters shadow 00:41:38 19° 3° (N) 2,150 9.7 -29.8°
